Regional Weather Roundup
Issued by NWS

Home | Current Version | Previous Version | Text Only | Print | Product List | Glossary On
Versions: 1 2 3 4 5 6 7 8 9 10 11 12 13 14 15 16 17 18 19 20 21 22 23 24 25 26 27 28 29 30 31 32 33 34 35 36 37 38 39 40 41 42 43 44 45 46 47 48 49 50
000
ASUS43 KTOP 261708
RWRKS

WEATHER ROUNDUP FOR KANSAS
NATIONAL WEATHER SERVICE GOODLAND KS
1100 AM CST FRI DEC 26 2014

NOTE:  "FAIR" INDICATES FEW OR NO CLOUDS BELOW 12,000 FEET WITH NO
SIGNIFICANT WEATHER AND/OR OBSTRUCTIONS TO VISIBILITY.

KSZ001>006-013>018-027>032-041>047-261800-
NORTHWEST KANSAS

CITY           SKY/WX    TMP DP  RH WIND       PRES   REMARKS
GOODLAND       LGT SNOW  23  21  92 NE18      29.98S FOG     WCI   9
HAYS           CLOUDY    28  18  64 N18       29.99R WCI  16
HILL CITY      CLOUDY    28  21  75 NE17      30.02R WCI  16
RUSSELL        CLOUDY    30  26  85 N18       29.97F WCI  18
$$

KSZ061>065-074>080-084>089-261800-
SOUTHWEST KANSAS

CITY           SKY/WX    TMP DP  RH WIND       PRES   REMARKS
DODGE CITY     CLOUDY    29  24  82 N15       29.97R WCI  18
ELKHART          N/A     26  19  74 N9          N/A
GARDEN CITY    CLOUDY    26  24  92 N15       29.97S WCI  14
GREAT BEND     CLOUDY    30  25  80 N15       29.99R WCI  19
LIBERAL        CLOUDY    30  23  74 N16       29.98R WCI  19
PRATT          CLOUDY    32  30  93 N14       29.97R FOG     WCI  22
$$

KSZ066>073-081>083-090>101-261800-
SOUTHEAST KANSAS

CITY           SKY/WX    TMP DP  RH WIND       PRES   REMARKS
CHANUTE        PTSUNNY   53  45  74 S14G26    29.95S
COFFEYVILLE    MOSUNNY   56  45  66 S21       29.96S
HUTCHINSON     CLOUDY    34  30  85 N12       29.96R FOG     WCI  25
MEDICINE LODGE   N/A     35  31  85 N17       29.95R WCI  25
NEWTON         CLOUDY    36  28  75 N13       29.96S WCI  27
PARSONS        PTSUNNY   55  46  71 S16G24    29.96F
WICHITA INTL   CLOUDY    37  31  78 N9        29.96R
WICHITA JABRA  CLOUDY    35  31  85 N10       29.95R WCI  27
WICHITA MCCONL CLOUDY    37  31  81 N12       29.95R WCI  29
WINFIELD       CLOUDY    49  42  77 SW8       29.93S
$$

KSZ007>012-019>026-033>040-048>060-102>105-261800-
NORTHEAST KANSAS

CITY           SKY/WX    TMP DP  RH WIND       PRES   REMARKS
CONCORDIA      CLOUDY    31  28  89 N15G21    29.99F WCI  20
EMPORIA        PTSUNNY   41  31  67 VRB3      29.94S
LAWRENCE       CLOUDY    48  36  63 S5        29.95R
MANHATTAN      CLOUDY    35  33  92 NE12      29.98R FOG     WCI  27
MARYSVILLE     CLOUDY    32  32 100 N14       29.97S WCI  22
OLATHE IND     CLOUDY    48  42  80 S10       29.95S
OLATHE EXE     CLOUDY    50  43  77 SW13G22   29.94S
SALINA         CLOUDY    35  30  82 N16       29.98F WCI  25
TOPEKA BILLARD CLOUDY    38  33  82 N7        29.98R
TOPEKA FORBES  CLOUDY    40  31  70 NW8       29.96R
$$


USA.gov is the U.S. government's official web portal to all federal, state and local government web resources and services.